owner,sensor,date,latitude,longitude,vertical_datum,mass_concentration_of_oxygen_in_sea_water,qcFlag 
DISL,ioos:station:DISL:KATA:1,2016-08-01T00:00:00Z,30.2583,-88.2131,3.842,6.94,1111122 
DISL,ioos:station:DISL:KATA:1,2016-08-01T00:30:00Z,30.2583,-88.2131,3.892,6.9,1111122 
DISL,ioos:station:DISL:KATA:1,2016-08-01T01:00:00Z,30.2583,-88.2131,3.861,6.89,1111122 
DISL,ioos:station:DISL:KATA:1,2016-08-01T01:30:00Z,30.2583,-88.2131,3.863,6.6,1111122 
DISL,ioos:station:DISL:KATA:1,2016-08-01T02:00:00Z,30.2583,-88.2131,3.829,6.51,1111122 
DISL,ioos:station:DISL:KATA:1,2016-08-01T02:30:00Z,30.2583,-88.2131,3.812,6.41,1111122 
DISL,ioos:station:DISL:KATA:1,2016-08-01T03:00:00Z,30.2583,-88.2131,3.843,6.31,1111122 
DISL,ioos:station:DISL:KATA:1,2016-08-01T03:30:00Z,30.2583,-88.2131,3.89,6.12,1111122 
DISL,ioos:station:DISL:KATA:1,2016-08-01T04:00:00Z,30.2583,-88.2131,3.965,6.2,1111122 
DISL,ioos:station:DISL:KATA:1,2016-08-01T04:30:00Z,30.2583,-88.2131,4.016,6.15,1111122 
DISL,ioos:station:DISL:KATA:1,2016-08-01T05:00:00Z,30.2583,-88.2131,4.062,6.12,1111122 
DISL,ioos:station:DISL:KATA:1,2016-08-01T05:30:00Z,30.2583,-88.2131,4.094,5.94,1111122 
DISL,ioos:station:DISL:KATA:1,2016-08-01T06:00:00Z,30.2583,-88.2131,4.124,5.83,1111122 
DISL,ioos:station:DISL:KATA:1,2016-08-01T06:30:00Z,30.2583,-88.2131,4.146,5.77,1111122 
DISL,ioos:station:DISL:KATA:1,2016-08-01T07:00:00Z,30.2583,-88.2131,4.164,5.69,1111122 
DISL,ioos:station:DISL:KATA:1,2016-08-01T07:30:00Z,30.2583,-88.2131,4.173,5.64,1111122 
DISL,ioos:station:DISL:KATA:1,2016-08-01T08:00:00Z,30.2583,-88.2131,4.186,5.64,1111122 
DISL,ioos:station:DISL:KATA:1,2016-08-01T08:30:00Z,30.2583,-88.2131,4.213,5.53,1111122 
DISL,ioos:station:DISL:KATA:1,2016-08-01T09:00:00Z,30.2583,-88.2131,4.233,5.59,1111122 
DISL,ioos:station:DISL:KATA:1,2016-08-01T09:30:00Z,30.2583,-88.2131,4.258,5.49,1111122 
DISL,ioos:station:DISL:KATA:1,2016-08-01T10:00:00Z,30.2583,-88.2131,4.291,5.4,1111122 
DISL,ioos:station:DISL:KATA:1,2016-08-01T10:30:00Z,30.2583,-88.2131,4.326,5.39,1111122 
DISL,ioos:station:DISL:KATA:1,2016-08-01T11:00:00Z,30.2583,-88.2131,4.381,5.34,1111122 
DISL,ioos:station:DISL:KATA:1,2016-08-01T11:30:00Z,30.2583,-88.2131,4.415,5.35,1111122 
DISL,ioos:station:DISL:KATA:1,2016-08-01T12:00:00Z,30.2583,-88.2131,4.455,5.31,1111122 
DISL,ioos:station:DISL:KATA:1,2016-08-01T12:30:00Z,30.2583,-88.2131,4.48,5.34,1111122 
DISL,ioos:station:DISL:KATA:1,2016-08-01T13:00:00Z,30.2583,-88.2131,4.486,5.25,1111122 
DISL,ioos:station:DISL:KATA:1,2016-08-01T13:30:00Z,30.2583,-88.2131,4.489,5.23,1111122 
DISL,ioos:station:DISL:KATA:1,2016-08-01T14:00:00Z,30.2583,-88.2131,4.463,5.16,1111122 
DISL,ioos:station:DISL:KATA:1,2016-08-01T14:30:00Z,30.2583,-88.2131,4.439,5.07,1111122 
DISL,ioos:station:DISL:KATA:1,2016-08-01T15:00:00Z,30.2583,-88.2131,4.42,5.08,1111122 
DISL,ioos:station:DISL:KATA:1,2016-08-01T15:30:00Z,30.2583,-88.2131,4.392,4.93,1111122 
DISL,ioos:station:DISL:KATA:1,2016-08-01T16:00:00Z,30.2583,-88.2131,4.366,4.96,1111122 
DISL,ioos:station:DISL:KATA:1,2016-08-01T16:30:00Z,30.2583,-88.2131,4.367,5.27,1111122 
DISL,ioos:station:DISL:KATA:1,2016-08-01T17:00:00Z,30.2583,-88.2131,4.37,5.45,1111122 
DISL,ioos:station:DISL:KATA:1,2016-08-01T17:30:00Z,30.2583,-88.2131,4.352,5.18,1111122 
DISL,ioos:station:DISL:KATA:1,2016-08-01T18:00:00Z,30.2583,-88.2131,4.329,5.16,1111122 
DISL,ioos:station:DISL:KATA:1,2016-08-01T18:30:00Z,30.2583,-88.2131,4.289,4.96,1111122 
DISL,ioos:station:DISL:KATA:1,2016-08-01T19:00:00Z,30.2583,-88.2131,4.213,5.43,1111122 
DISL,ioos:station:DISL:KATA:1,2016-08-01T19:30:00Z,30.2583,-88.2131,4.144,5.83,1111122 
DISL,ioos:station:DISL:KATA:1,2016-08-01T20:00:00Z,30.2583,-88.2131,4.087,6.07,1111122 
DISL,ioos:station:DISL:KATA:1,2016-08-01T20:30:00Z,30.2583,-88.2131,4.024,6.45,1111122 
DISL,ioos:station:DISL:KATA:1,2016-08-01T21:00:00Z,30.2583,-88.2131,3.972,6.76,1111122 
DISL,ioos:station:DISL:KATA:1,2016-08-01T21:30:00Z,30.2583,-88.2131,3.932,6.91,1111122 
DISL,ioos:station:DISL:KATA:1,2016-08-01T22:00:00Z,30.2583,-88.2131,3.9,7.15,1111122 
DISL,ioos:station:DISL:KATA:1,2016-08-01T22:30:00Z,30.2583,-88.2131,3.888,7.33,1111122 
DISL,ioos:station:DISL:KATA:1,2016-08-01T23:00:00Z,30.2583,-88.2131,3.88,7.42,1111122 
DISL,ioos:station:DISL:KATA:1,2016-08-01T23:30:00Z,30.2583,-88.2131,3.871,7.39,1111122 
DISL,ioos:station:DISL:KATA:1,2016-08-02T00:00:00Z,30.2583,-88.2131,3.888,7.34,1111122 
DISL,ioos:station:DISL:KATA:1,2016-08-02T00:30:00Z,30.2583,-88.2131,3.901,6.77,1111122 
DISL,ioos:station:DISL:KATA:1,2016-08-02T01:00:00Z,30.2583,-88.2131,3.915,6.63,1111122 
DISL,ioos:station:DISL:KATA:1,2016-08-02T01:30:00Z,30.2583,-88.2131,3.936,6.34,1111122 
DISL,ioos:station:DISL:KATA:1,2016-08-02T02:00:00Z,30.2583,-88.2131,3.956,5.75,1111122 
DISL,ioos:station:DISL:KATA:1,2016-08-02T02:30:00Z,30.2583,-88.2131,3.952,5.47,1111122 
DISL,ioos:station:DISL:KATA:1,2016-08-02T03:00:00Z,30.2583,-88.2131,3.961,5.9,1111122 
DISL,ioos:station:DISL:KATA:1,2016-08-02T03:30:00Z,30.2583,-88.2131,3.969,6.16,1111122 
DISL,ioos:station:DISL:KATA:1,2016-08-02T04:00:00Z,30.2583,-88.2131,3.985,6.41,1111122 
DISL,ioos:station:DISL:KATA:1,2016-08-02T04:30:00Z,30.2583,-88.2131,4.007,6.2,1111122 
DISL,ioos:station:DISL:KATA:1,2016-08-02T05:00:00Z,30.2583,-88.2131,4.049,6.29,1111122 
DISL,ioos:station:DISL:KATA:1,2016-08-02T05:30:00Z,30.2583,-88.2131,4.075,6.21,1111122 
DISL,ioos:station:DISL:KATA:1,2016-08-02T06:00:00Z,30.2583,-88.2131,4.11,6.21,1111122 
DISL,ioos:station:DISL:KATA:1,2016-08-02T06:30:00Z,30.2583,-88.2131,4.135,6.35,1111122 
DISL,ioos:station:DISL:KATA:1,2016-08-02T07:00:00Z,30.2583,-88.2131,4.17,6.36,1111122 
DISL,ioos:station:DISL:KATA:1,2016-08-02T07:30:00Z,30.2583,-88.2131,4.208,6.09,1111122 
DISL,ioos:station:DISL:KATA:1,2016-08-02T08:00:00Z,30.2583,-88.2131,4.231,6.02,1111122 
DISL,ioos:station:DISL:KATA:1,2016-08-02T08:30:00Z,30.2583,-88.2131,4.257,5.92,1111122 
DISL,ioos:station:DISL:KATA:1,2016-08-02T09:00:00Z,30.2583,-88.2131,4.273,6.0,1111122 
DISL,ioos:station:DISL:KATA:1,2016-08-02T09:30:00Z,30.2583,-88.2131,4.299,5.85,1111122 
DISL,ioos:station:DISL:KATA:1,2016-08-02T10:00:00Z,30.2583,-88.2131,4.322,5.76,1111122 
DISL,ioos:station:DISL:KATA:1,2016-08-02T10:30:00Z,30.2583,-88.2131,4.333,5.55,1111122 
DISL,ioos:station:DISL:KATA:1,2016-08-02T11:00:00Z,30.2583,-88.2131,4.361,5.47,1111122 
DISL,ioos:station:DISL:KATA:1,2016-08-02T11:30:00Z,30.2583,-88.2131,4.395,5.49,1111122 
DISL,ioos:station:DISL:KATA:1,2016-08-02T12:00:00Z,30.2583,-88.2131,4.454,5.52,1111122 
DISL,ioos:station:DISL:KATA:1,2016-08-02T12:30:00Z,30.2583,-88.2131,4.459,5.5,1111122 
DISL,ioos:station:DISL:KATA:1,2016-08-02T13:00:00Z,30.2583,-88.2131,4.467,5.52,1111122 
DISL,ioos:station:DISL:KATA:1,2016-08-02T13:30:00Z,30.2583,-88.2131,4.472,5.45,1111122 
DISL,ioos:station:DISL:KATA:1,2016-08-02T14:00:00Z,30.2583,-88.2131,4.49,5.48,1111122 
DISL,ioos:station:DISL:KATA:1,2016-08-02T14:30:00Z,30.2583,-88.2131,4.523,5.51,1111122 
DISL,ioos:station:DISL:KATA:1,2016-08-02T15:00:00Z,30.2583,-88.2131,4.516,5.57,1111122 
DISL,ioos:station:DISL:KATA:1,2016-08-02T15:30:00Z,30.2583,-88.2131,4.518,5.55,1111122 
DISL,ioos:station:DISL:KATA:1,2016-08-02T16:00:00Z,30.2583,-88.2131,4.495,5.57,1111122 
DISL,ioos:station:DISL:KATA:1,2016-08-02T16:30:00Z,30.2583,-88.2131,4.465,5.69,1111122 
DISL,ioos:station:DISL:KATA:1,2016-08-02T17:00:00Z,30.2583,-88.2131,4.434,5.77,1111122 
DISL,ioos:station:DISL:KATA:1,2016-08-02T17:30:00Z,30.2583,-88.2131,4.412,5.7,1111122 
DISL,ioos:station:DISL:KATA:1,2016-08-02T18:00:00Z,30.2583,-88.2131,4.382,5.62,1111122 
DISL,ioos:station:DISL:KATA:1,2016-08-02T18:30:00Z,30.2583,-88.2131,4.378,5.65,1111122 
DISL,ioos:station:DISL:KATA:1,2016-08-02T19:00:00Z,30.2583,-88.2131,4.348,5.65,1111122 
DISL,ioos:station:DISL:KATA:1,2016-08-02T19:30:00Z,30.2583,-88.2131,4.289,5.46,1111122 
DISL,ioos:station:DISL:KATA:1,2016-08-02T20:00:00Z,30.2583,-88.2131,4.256,5.46,1111122 
DISL,ioos:station:DISL:KATA:1,2016-08-02T20:30:00Z,30.2583,-88.2131,4.198,5.53,1111122 
DISL,ioos:station:DISL:KATA:1,2016-08-02T21:00:00Z,30.2583,-88.2131,4.15,5.69,1111122 
DISL,ioos:station:DISL:KATA:1,2016-08-02T21:30:00Z,30.2583,-88.2131,4.105,5.79,1111122 
DISL,ioos:station:DISL:KATA:1,2016-08-02T22:00:00Z,30.2583,-88.2131,4.06,5.99,1111122 
DISL,ioos:station:DISL:KATA:1,2016-08-02T22:30:00Z,30.2583,-88.2131,4.009,6.01,1111122 
DISL,ioos:station:DISL:KATA:1,2016-08-02T23:00:00Z,30.2583,-88.2131,3.988,6.17,1111122 
DISL,ioos:station:DISL:KATA:1,2016-08-02T23:30:00Z,30.2583,-88.2131,3.958,6.24,1111122 
DISL,ioos:station:DISL:KATA:1,2016-08-03T00:00:00Z,30.2583,-88.2131,3.941,6.35,1111122 
DISL,ioos:station:DISL:KATA:1,2016-08-03T00:30:00Z,30.2583,-88.2131,3.95,6.36,1111122 
DISL,ioos:station:DISL:KATA:1,2016-08-03T01:00:00Z,30.2583,-88.2131,3.975,6.38,1111122 
DISL,ioos:station:DISL:KATA:1,2016-08-03T01:30:00Z,30.2583,-88.2131,3.999,6.28,1111122 
DISL,ioos:station:DISL:KATA:1,2016-08-03T02:00:00Z,30.2583,-88.2131,4.023,5.97,1111122 
DISL,ioos:station:DISL:KATA:1,2016-08-03T02:30:00Z,30.2583,-88.2131,4.035,6.07,1111122 
DISL,ioos:station:DISL:KATA:1,2016-08-03T03:00:00Z,30.2583,-88.2131,4.047,5.76,1111122 
DISL,ioos:station:DISL:KATA:1,2016-08-03T03:30:00Z,30.2583,-88.2131,4.048,5.6,1111122 
DISL,ioos:station:DISL:KATA:1,2016-08-03T04:00:00Z,30.2583,-88.2131,4.041,5.65,1111122 
DISL,ioos:station:DISL:KATA:1,2016-08-03T04:30:00Z,30.2583,-88.2131,4.06,5.49,1111122 
DISL,ioos:station:DISL:KATA:1,2016-08-03T05:00:00Z,30.2583,-88.2131,4.09,5.45,1111122 
DISL,ioos:station:DISL:KATA:1,2016-08-03T05:30:00Z,30.2583,-88.2131,4.107,5.63,1111122 
DISL,ioos:station:DISL:KATA:1,2016-08-03T06:00:00Z,30.2583,-88.2131,4.151,5.21,1111122 
DISL,ioos:station:DISL:KATA:1,2016-08-03T06:30:00Z,30.2583,-88.2131,4.182,5.26,1111122 
DISL,ioos:station:DISL:KATA:1,2016-08-03T07:00:00Z,30.2583,-88.2131,4.216,5.22,1111122 
DISL,ioos:station:DISL:KATA:1,2016-08-03T07:30:00Z,30.2583,-88.2131,4.233,5.11,1111122 
DISL,ioos:station:DISL:KATA:1,2016-08-03T08:00:00Z,30.2583,-88.2131,4.242,5.0,1111122 
DISL,ioos:station:DISL:KATA:1,2016-08-03T08:30:00Z,30.2583,-88.2131,4.259,4.87,1111122 
DISL,ioos:station:DISL:KATA:1,2016-08-03T09:00:00Z,30.2583,-88.2131,4.275,4.89,1111122 
DISL,ioos:station:DISL:KATA:1,2016-08-03T09:30:00Z,30.2583,-88.2131,4.294,4.97,1111122 
DISL,ioos:station:DISL:KATA:1,2016-08-03T10:00:00Z,30.2583,-88.2131,4.301,4.94,1111122 
DISL,ioos:station:DISL:KATA:1,2016-08-03T10:30:00Z,30.2583,-88.2131,4.304,4.98,1111122 
DISL,ioos:station:DISL:KATA:1,2016-08-03T11:00:00Z,30.2583,-88.2131,4.323,5.09,1111122 
DISL,ioos:station:DISL:KATA:1,2016-08-03T11:30:00Z,30.2583,-88.2131,4.343,5.12,1111122 
DISL,ioos:station:DISL:KATA:1,2016-08-03T12:00:00Z,30.2583,-88.2131,4.382,5.18,1111122 
DISL,ioos:station:DISL:KATA:1,2016-08-03T12:30:00Z,30.2583,-88.2131,4.406,5.2,1111122 
DISL,ioos:station:DISL:KATA:1,2016-08-03T13:00:00Z,30.2583,-88.2131,4.436,5.23,1111122 
DISL,ioos:station:DISL:KATA:1,2016-08-03T13:30:00Z,30.2583,-88.2131,4.472,5.33,1111122 
DISL,ioos:station:DISL:KATA:1,2016-08-03T14:00:00Z,30.2583,-88.2131,4.495,5.48,1111122 
DISL,ioos:station:DISL:KATA:1,2016-08-03T14:30:00Z,30.2583,-88.2131,4.531,5.55,1111122 
DISL,ioos:station:DISL:KATA:1,2016-08-03T15:00:00Z,30.2583,-88.2131,4.531,5.5,1111122 
DISL,ioos:station:DISL:KATA:1,2016-08-03T15:30:00Z,30.2583,-88.2131,4.539,5.61,1111122 
DISL,ioos:station:DISL:KATA:1,2016-08-03T16:00:00Z,30.2583,-88.2131,4.513,5.65,1111122 
DISL,ioos:station:DISL:KATA:1,2016-08-03T16:30:00Z,30.2583,-88.2131,4.483,5.57,1111122 
DISL,ioos:station:DISL:KATA:1,2016-08-03T17:00:00Z,30.2583,-88.2131,4.467,5.78,1111122 
DISL,ioos:station:DISL:KATA:1,2016-08-03T17:30:00Z,30.2583,-88.2131,4.453,5.64,1111122 
DISL,ioos:station:DISL:KATA:1,2016-08-03T18:00:00Z,30.2583,-88.2131,4.419,5.59,1111122 
DISL,ioos:station:DISL:KATA:1,2016-08-03T18:30:00Z,30.2583,-88.2131,4.404,5.72,1111122 
DISL,ioos:station:DISL:KATA:1,2016-08-03T19:00:00Z,30.2583,-88.2131,4.376,6.03,1111122 
DISL,ioos:station:DISL:KATA:1,2016-08-03T19:30:00Z,30.2583,-88.2131,4.362,6.08,1111122 
DISL,ioos:station:DISL:KATA:1,2016-08-03T20:00:00Z,30.2583,-88.2131,4.338,6.02,1111122 
DISL,ioos:station:DISL:KATA:1,2016-08-03T20:30:00Z,30.2583,-88.2131,4.294,6.27,1111122 
DISL,ioos:station:DISL:KATA:1,2016-08-03T21:00:00Z,30.2583,-88.2131,4.232,6.46,1111122 
DISL,ioos:station:DISL:KATA:1,2016-08-03T21:30:00Z,30.2583,-88.2131,4.14,6.61,1111122 
DISL,ioos:station:DISL:KATA:1,2016-08-03T22:00:00Z,30.2583,-88.2131,4.072,6.85,1111122 
DISL,ioos:station:DISL:KATA:1,2016-08-03T22:30:00Z,30.2583,-88.2131,4.065,6.81,1111122 
DISL,ioos:station:DISL:KATA:1,2016-08-03T23:00:00Z,30.2583,-88.2131,4.029,6.84,1111122 
DISL,ioos:station:DISL:KATA:1,2016-08-03T23:30:00Z,30.2583,-88.2131,4.006,7.2,1111122 
DISL,ioos:station:DISL:KATA:1,2016-08-04T00:00:00Z,30.2583,-88.2131,4.001,7.25,1111122 
DISL,ioos:station:DISL:KATA:1,2016-08-04T00:30:00Z,30.2583,-88.2131,4.013,7.32,1111122 
DISL,ioos:station:DISL:KATA:1,2016-08-04T01:00:00Z,30.2583,-88.2131,4.018,7.33,1111122 
DISL,ioos:station:DISL:KATA:1,2016-08-04T01:30:00Z,30.2583,-88.2131,4.036,7.27,1111122 
DISL,ioos:station:DISL:KATA:1,2016-08-04T02:00:00Z,30.2583,-88.2131,4.056,7.26,1111122 
DISL,ioos:station:DISL:KATA:1,2016-08-04T02:30:00Z,30.2583,-88.2131,4.061,6.98,1111122 
DISL,ioos:station:DISL:KATA:1,2016-08-04T03:00:00Z,30.2583,-88.2131,4.07,5.78,1111122 
DISL,ioos:station:DISL:KATA:1,2016-08-04T03:30:00Z,30.2583,-88.2131,4.069,6.08,1111122 
DISL,ioos:station:DISL:KATA:1,2016-08-04T04:00:00Z,30.2583,-88.2131,4.068,6.02,1111122 
DISL,ioos:station:DISL:KATA:1,2016-08-04T04:30:00Z,30.2583,-88.2131,4.08,5.97,1111122 
DISL,ioos:station:DISL:KATA:1,2016-08-04T05:00:00Z,30.2583,-88.2131,4.095,6.26,1111122 
DISL,ioos:station:DISL:KATA:1,2016-08-04T05:30:00Z,30.2583,-88.2131,4.097,6.47,1111122 
DISL,ioos:station:DISL:KATA:1,2016-08-04T06:00:00Z,30.2583,-88.2131,4.118,5.5,1111122 
DISL,ioos:station:DISL:KATA:1,2016-08-04T06:30:00Z,30.2583,-88.2131,4.164,5.2,1111122 
DISL,ioos:station:DISL:KATA:1,2016-08-04T07:00:00Z,30.2583,-88.2131,4.196,5.23,1111122 
DISL,ioos:station:DISL:KATA:1,2016-08-04T07:30:00Z,30.2583,-88.2131,4.223,5.3,1111122 
DISL,ioos:station:DISL:KATA:1,2016-08-04T08:00:00Z,30.2583,-88.2131,4.242,5.26,1111122 
DISL,ioos:station:DISL:KATA:1,2016-08-04T08:30:00Z,30.2583,-88.2131,4.258,5.17,1111122 
DISL,ioos:station:DISL:KATA:1,2016-08-04T09:00:00Z,30.2583,-88.2131,4.257,5.36,1111122 
DISL,ioos:station:DISL:KATA:1,2016-08-04T09:30:00Z,30.2583,-88.2131,4.258,5.45,1111122 
DISL,ioos:station:DISL:KATA:1,2016-08-04T10:00:00Z,30.2583,-88.2131,4.257,5.75,1111122 
DISL,ioos:station:DISL:KATA:1,2016-08-04T10:30:00Z,30.2583,-88.2131,4.263,5.79,1111122 
DISL,ioos:station:DISL:KATA:1,2016-08-04T11:00:00Z,30.2583,-88.2131,4.25,5.44,1111122 
DISL,ioos:station:DISL:KATA:1,2016-08-04T11:30:00Z,30.2583,-88.2131,4.249,5.74,1111122 
DISL,ioos:station:DISL:KATA:1,2016-08-04T12:00:00Z,30.2583,-88.2131,4.26,5.83,1111122 
DISL,ioos:station:DISL:KATA:1,2016-08-04T12:30:00Z,30.2583,-88.2131,4.279,6.12,1111122 
DISL,ioos:station:DISL:KATA:1,2016-08-04T13:00:00Z,30.2583,-88.2131,4.326,6.13,1111122 
DISL,ioos:station:DISL:KATA:1,2016-08-04T13:30:00Z,30.2583,-88.2131,4.36,6.24,1111122 
DISL,ioos:station:DISL:KATA:1,2016-08-04T14:00:00Z,30.2583,-88.2131,4.412,6.08,1111122 
DISL,ioos:station:DISL:KATA:1,2016-08-04T14:30:00Z,30.2583,-88.2131,4.443,6.21,1111122 
DISL,ioos:station:DISL:KATA:1,2016-08-04T15:00:00Z,30.2583,-88.2131,4.463,6.29,1111122 
DISL,ioos:station:DISL:KATA:1,2016-08-04T15:30:00Z,30.2583,-88.2131,4.483,6.21,1111122 
DISL,ioos:station:DISL:KATA:1,2016-08-04T16:00:00Z,30.2583,-88.2131,4.487,6.15,1111122 
DISL,ioos:station:DISL:KATA:1,2016-08-04T16:30:00Z,30.2583,-88.2131,4.446,6.19,1111122 
DISL,ioos:station:DISL:KATA:1,2016-08-04T17:00:00Z,30.2583,-88.2131,4.414,5.95,1111122 
DISL,ioos:station:DISL:KATA:1,2016-08-04T17:30:00Z,30.2583,-88.2131,4.39,6.05,1111122 
DISL,ioos:station:DISL:KATA:1,2016-08-04T18:00:00Z,30.2583,-88.2131,4.409,6.1,1111122 
DISL,ioos:station:DISL:KATA:1,2016-08-04T18:30:00Z,30.2583,-88.2131,4.369,6.21,1111122 
DISL,ioos:station:DISL:KATA:1,2016-08-04T19:00:00Z,30.2583,-88.2131,4.363,6.25,1111122 
DISL,ioos:station:DISL:KATA:1,2016-08-04T19:30:00Z,30.2583,-88.2131,4.354,6.3,1111122 
DISL,ioos:station:DISL:KATA:1,2016-08-04T20:00:00Z,30.2583,-88.2131,4.36,6.37,1111122 
DISL,ioos:station:DISL:KATA:1,2016-08-04T20:30:00Z,30.2583,-88.2131,4.352,6.21,1111122 
DISL,ioos:station:DISL:KATA:1,2016-08-04T21:00:00Z,30.2583,-88.2131,4.301,5.99,1111122 
DISL,ioos:station:DISL:KATA:1,2016-08-04T21:30:00Z,30.2583,-88.2131,4.288,6.01,1111122 
DISL,ioos:station:DISL:KATA:1,2016-08-04T22:00:00Z,30.2583,-88.2131,4.232,6.28,1111122 
DISL,ioos:station:DISL:KATA:1,2016-08-04T22:30:00Z,30.2583,-88.2131,4.195,7.22,1111122 
DISL,ioos:station:DISL:KATA:1,2016-08-04T23:00:00Z,30.2583,-88.2131,4.163,6.38,1111122 
DISL,ioos:station:DISL:KATA:1,2016-08-04T23:30:00Z,30.2583,-88.2131,4.098,5.88,1111122 
DISL,ioos:station:DISL:KATA:1,2016-08-05T00:00:00Z,30.2583,-88.2131,4.086,5.9,1111122 
DISL,ioos:station:DISL:KATA:1,2016-08-05T00:30:00Z,30.2583,-88.2131,4.088,6.01,1111122 
DISL,ioos:station:DISL:KATA:1,2016-08-05T01:00:00Z,30.2583,-88.2131,4.095,6.06,1111122 
DISL,ioos:station:DISL:KATA:1,2016-08-05T01:30:00Z,30.2583,-88.2131,4.106,6.63,1111122 
DISL,ioos:station:DISL:KATA:1,2016-08-05T02:00:00Z,30.2583,-88.2131,4.1,6.36,1111122 
DISL,ioos:station:DISL:KATA:1,2016-08-05T02:30:00Z,30.2583,-88.2131,4.112,7.27,1111122 
DISL,ioos:station:DISL:KATA:1,2016-08-05T03:00:00Z,30.2583,-88.2131,4.125,5.04,1111122 
DISL,ioos:station:DISL:KATA:1,2016-08-05T03:30:00Z,30.2583,-88.2131,4.159,4.89,1111122 
DISL,ioos:station:DISL:KATA:1,2016-08-05T04:00:00Z,30.2583,-88.2131,4.167,4.34,1111122 
DISL,ioos:station:DISL:KATA:1,2016-08-05T04:30:00Z,30.2583,-88.2131,4.172,4.34,1111122 
DISL,ioos:station:DISL:KATA:1,2016-08-05T05:00:00Z,30.2583,-88.2131,4.189,4.37,1111122 
DISL,ioos:station:DISL:KATA:1,2016-08-05T05:30:00Z,30.2583,-88.2131,4.177,4.29,1111122 
DISL,ioos:station:DISL:KATA:1,2016-08-05T06:00:00Z,30.2583,-88.2131,4.177,4.38,1111122 
DISL,ioos:station:DISL:KATA:1,2016-08-05T06:30:00Z,30.2583,-88.2131,4.194,4.46,1111122 
DISL,ioos:station:DISL:KATA:1,2016-08-05T07:00:00Z,30.2583,-88.2131,4.196,4.43,1111122 
DISL,ioos:station:DISL:KATA:1,2016-08-05T07:30:00Z,30.2583,-88.2131,4.223,4.87,1111122 
DISL,ioos:station:DISL:KATA:1,2016-08-05T08:00:00Z,30.2583,-88.2131,4.242,5.14,1111122 
DISL,ioos:station:DISL:KATA:1,2016-08-05T08:30:00Z,30.2583,-88.2131,4.256,5.14,1111122 
DISL,ioos:station:DISL:KATA:1,2016-08-05T09:00:00Z,30.2583,-88.2131,4.276,5.06,1111122 
DISL,ioos:station:DISL:KATA:1,2016-08-05T09:30:00Z,30.2583,-88.2131,4.293,4.98,1111122 
DISL,ioos:station:DISL:KATA:1,2016-08-05T10:00:00Z,30.2583,-88.2131,4.289,5.04,1111122 
DISL,ioos:station:DISL:KATA:1,2016-08-05T10:30:00Z,30.2583,-88.2131,4.278,5.07,1111122 
DISL,ioos:station:DISL:KATA:1,2016-08-05T11:00:00Z,30.2583,-88.2131,4.261,4.97,1111122 
DISL,ioos:station:DISL:KATA:1,2016-08-05T11:30:00Z,30.2583,-88.2131,4.237,5.17,1111122 
DISL,ioos:station:DISL:KATA:1,2016-08-05T12:00:00Z,30.2583,-88.2131,4.222,5.46,1111122 
DISL,ioos:station:DISL:KATA:1,2016-08-05T12:30:00Z,30.2583,-88.2131,4.251,5.6,1111122 
DISL,ioos:station:DISL:KATA:1,2016-08-05T13:00:00Z,30.2583,-88.2131,4.269,5.51,1111122 
DISL,ioos:station:DISL:KATA:1,2016-08-05T13:30:00Z,30.2583,-88.2131,4.309,5.22,1111122 
DISL,ioos:station:DISL:KATA:1,2016-08-05T14:00:00Z,30.2583,-88.2131,4.351,5.2,1111122 
DISL,ioos:station:DISL:KATA:1,2016-08-05T14:30:00Z,30.2583,-88.2131,4.375,5.18,1111122 
DISL,ioos:station:DISL:KATA:1,2016-08-05T15:00:00Z,30.2583,-88.2131,4.386,4.92,1111122 
DISL,ioos:station:DISL:KATA:1,2016-08-05T15:30:00Z,30.2583,-88.2131,4.39,4.97,1111122 
DISL,ioos:station:DISL:KATA:1,2016-08-05T16:00:00Z,30.2583,-88.2131,4.401,4.86,1111122 
DISL,ioos:station:DISL:KATA:1,2016-08-05T16:30:00Z,30.2583,-88.2131,4.396,4.93,1111122 
DISL,ioos:station:DISL:KATA:1,2016-08-05T17:00:00Z,30.2583,-88.2131,4.391,4.78,1111122 
DISL,ioos:station:DISL:KATA:1,2016-08-05T17:30:00Z,30.2583,-88.2131,4.388,4.8,1111122 
DISL,ioos:station:DISL:KATA:1,2016-08-05T18:00:00Z,30.2583,-88.2131,4.388,4.7,1111122 
DISL,ioos:station:DISL:KATA:1,2016-08-05T18:30:00Z,30.2583,-88.2131,4.381,4.67,1111122 
DISL,ioos:station:DISL:KATA:1,2016-08-05T19:00:00Z,30.2583,-88.2131,4.381,5.03,1111122 
DISL,ioos:station:DISL:KATA:1,2016-08-05T19:30:00Z,30.2583,-88.2131,4.359,4.64,1111122 
DISL,ioos:station:DISL:KATA:1,2016-08-05T20:00:00Z,30.2583,-88.2131,4.33,4.74,1111122 
DISL,ioos:station:DISL:KATA:1,2016-08-05T20:30:00Z,30.2583,-88.2131,4.304,4.69,1111122 
DISL,ioos:station:DISL:KATA:1,2016-08-05T21:00:00Z,30.2583,-88.2131,4.289,4.67,1111122 
DISL,ioos:station:DISL:KATA:1,2016-08-05T21:30:00Z,30.2583,-88.2131,4.257,4.78,1111122 
DISL,ioos:station:DISL:KATA:1,2016-08-05T22:00:00Z,30.2583,-88.2131,4.233,4.93,1111122 
DISL,ioos:station:DISL:KATA:1,2016-08-05T22:30:00Z,30.2583,-88.2131,4.218,5.1,1111122 
DISL,ioos:station:DISL:KATA:1,2016-08-05T23:00:00Z,30.2583,-88.2131,4.189,4.86,1111122 
DISL,ioos:station:DISL:KATA:1,2016-08-05T23:30:00Z,30.2583,-88.2131,4.16,5.01,1111122 
DISL,ioos:station:DISL:KATA:1,2016-08-06T00:00:00Z,30.2583,-88.2131,4.142,5.1,1111122 
DISL,ioos:station:DISL:KATA:1,2016-08-06T00:30:00Z,30.2583,-88.2131,4.132,5.15,1111122 
DISL,ioos:station:DISL:KATA:1,2016-08-06T01:00:00Z,30.2583,-88.2131,4.114,5.15,1111122 
DISL,ioos:station:DISL:KATA:1,2016-08-06T01:30:00Z,30.2583,-88.2131,4.118,4.95,1111122 
DISL,ioos:station:DISL:KATA:1,2016-08-06T02:00:00Z,30.2583,-88.2131,4.119,4.81,1111122 
DISL,ioos:station:DISL:KATA:1,2016-08-06T02:30:00Z,30.2583,-88.2131,4.128,4.7,1111122 
DISL,ioos:station:DISL:KATA:1,2016-08-06T03:00:00Z,30.2583,-88.2131,4.123,4.61,1111122 
DISL,ioos:station:DISL:KATA:1,2016-08-06T03:30:00Z,30.2583,-88.2131,4.14,4.39,1111122 
DISL,ioos:station:DISL:KATA:1,2016-08-06T04:00:00Z,30.2583,-88.2131,4.156,4.15,1111122 
DISL,ioos:station:DISL:KATA:1,2016-08-06T04:30:00Z,30.2583,-88.2131,4.14,4.08,1111122 
DISL,ioos:station:DISL:KATA:1,2016-08-06T05:00:00Z,30.2583,-88.2131,4.116,4.04,1111122 
DISL,ioos:station:DISL:KATA:1,2016-08-06T05:30:00Z,30.2583,-88.2131,4.08,3.87,1111122 
DISL,ioos:station:DISL:KATA:1,2016-08-06T06:00:00Z,30.2583,-88.2131,4.076,3.7,1111122 
DISL,ioos:station:DISL:KATA:1,2016-08-06T06:30:00Z,30.2583,-88.2131,4.143,3.55,1111122 
DISL,ioos:station:DISL:KATA:1,2016-08-06T07:00:00Z,30.2583,-88.2131,4.13,3.66,1111122 
DISL,ioos:station:DISL:KATA:1,2016-08-06T07:30:00Z,30.2583,-88.2131,4.147,3.76,1111122 
DISL,ioos:station:DISL:KATA:1,2016-08-06T08:00:00Z,30.2583,-88.2131,4.201,3.93,1111122 
DISL,ioos:station:DISL:KATA:1,2016-08-06T08:30:00Z,30.2583,-88.2131,4.227,3.95,1111122 
DISL,ioos:station:DISL:KATA:1,2016-08-06T09:00:00Z,30.2583,-88.2131,4.252,3.8,1111122 
DISL,ioos:station:DISL:KATA:1,2016-08-06T09:30:00Z,30.2583,-88.2131,4.259,3.9,1111122 
DISL,ioos:station:DISL:KATA:1,2016-08-06T10:00:00Z,30.2583,-88.2131,4.245,3.86,1111122 
DISL,ioos:station:DISL:KATA:1,2016-08-06T10:30:00Z,30.2583,-88.2131,4.238,3.84,1111122 
DISL,ioos:station:DISL:KATA:1,2016-08-06T11:00:00Z,30.2583,-88.2131,4.212,3.75,1111122 
DISL,ioos:station:DISL:KATA:1,2016-08-06T11:30:00Z,30.2583,-88.2131,4.202,3.63,1111122 
DISL,ioos:station:DISL:KATA:1,2016-08-06T12:00:00Z,30.2583,-88.2131,4.18,4.16,1111122 
DISL,ioos:station:DISL:KATA:1,2016-08-06T12:30:00Z,30.2583,-88.2131,4.195,4.17,1111122 
DISL,ioos:station:DISL:KATA:1,2016-08-06T13:00:00Z,30.2583,-88.2131,4.205,4.07,1111122 
DISL,ioos:station:DISL:KATA:1,2016-08-06T13:30:00Z,30.2583,-88.2131,4.21,4.46,1111122 
DISL,ioos:station:DISL:KATA:1,2016-08-06T14:00:00Z,30.2583,-88.2131,4.234,3.95,1111122 
DISL,ioos:station:DISL:KATA:1,2016-08-06T14:30:00Z,30.2583,-88.2131,4.247,4.09,1111122 
DISL,ioos:station:DISL:KATA:1,2016-08-06T15:00:00Z,30.2583,-88.2131,4.265,3.34,1111122 
DISL,ioos:station:DISL:KATA:1,2016-08-06T15:30:00Z,30.2583,-88.2131,4.291,3.24,1111122 